Weather History for Ostend, Belgium

Change the Weather History Date:

Monday, October 29, 2012

  Actual Average Record
Temperature  
Mean Temperature 46 °F -  
Max Temperature 50 °F 49 °F 68 °F (2005)
Min Temperature 43 °F 39 °F 24 °F (1997)
Degree Days  
Heating Degree Days 18    
Moisture  
Dew Point 43 °F    
Average Humidity 88    
Maximum Humidity 93    
Minimum Humidity 81    
Precipitation  
Precipitation 0.08 in - - ()
Sea Level Pressure  
Sea Level Pressure 29.83 in    
Wind  
Wind Speed 10 mph ()    
Max Wind Speed 17 mph    
Max Gust Speed -    
Visibility 6.0 miles    
Events Rain    
Averages and records for this station are not official NWS values.
T = Trace of Precipitation, MM = Missing Value Source: Averaged Metar Reports

Daily Weather History Graph

Daily Weather History Graph

Search for Another Location

Airport:

Trip Planner

Search our weather history database for the weather conditions in past years. The results will help you decide how hot, cold, wet, or windy it might be!

Date:

Astronomy

Oct. 29, 2012 Rise Set
Actual Time 7:36 AM CET 5:27 PM CET
Civil Twilight 7:01 AM CET 6:01 PM CET
Nautical Twilight 6:22 AM CET 6:40 PM CET
Astronomical Twilight 5:44 AM CET 7:19 PM CET
Moon 5:06 PM CET (10/29) 7:14 AM CET (10/29)
Length of Visible Light 10h 59m
Length of Day
9h 50m
Full, 100% of the Moon is Illuminated
Oct 29
Full
Oct 29
Full
Nov 7
Last Quarter
Nov 13
New
Nov 20
First Quarter

Hourly Weather History & Observations

Time (CET) Temp. Windchill Dew Point Humidity Pressure Visibility Wind Dir Wind Speed Gust Speed Precip Events Conditions
12:20 AM 44.6 °F 39.2 °F 39.2 °F 81% 29.92 in 6.2 mi South 10.4 mph - N/A   Scattered Clouds
12:50 AM 42.8 °F 37.5 °F 39.2 °F 87% 29.92 in 6.2 mi South 9.2 mph - N/A Rain Light Rain
1:00 AM 43 °F - 40 °F 84% 29.93 in 9 mi South 8.9 mph - - Rain Light Rain
1:20 AM 42.8 °F 37.0 °F 39.2 °F 87% 29.92 in 6.2 mi SSW 10.4 mph - N/A Rain Light Rain
1:50 AM 42.8 °F 37.5 °F 39.2 °F 87% 29.92 in 6.2 mi South 9.2 mph - N/A Rain Light Rain
2:20 AM 42.8 °F 37.0 °F 41.0 °F 93% 29.92 in 6.2 mi SSW 10.4 mph - N/A Rain Light Rain
2:50 AM 42.8 °F 37.0 °F 41.0 °F 93% 29.92 in 5.0 mi SSW 10.4 mph - N/A Rain Light Rain
3:20 AM 42.8 °F 37.5 °F 41.0 °F 93% 29.89 in 6.2 mi South 9.2 mph - N/A Rain Light Rain
3:50 AM 42.8 °F 37.0 °F 41.0 °F 93% 29.89 in 5.6 mi South 10.4 mph - N/A Rain Light Rain
4:00 AM 43 °F - 41 °F 88% 29.90 in 6 mi South 11.2 mph - - Rain Light Rain
4:20 AM 42.8 °F 37.5 °F 41.0 °F 93% 29.89 in 5.0 mi SSW 9.2 mph - N/A Rain Light Rain
4:50 AM 42.8 °F 37.5 °F 41.0 °F 93% 29.89 in 5.0 mi SSW 9.2 mph - N/A Rain Light Rain
5:20 AM 42.8 °F 38.0 °F 41.0 °F 93% 29.89 in 3.7 mi SSW 8.1 mph - N/A Rain Light Rain
5:50 AM 42.8 °F 38.0 °F 41.0 °F 93% 29.89 in 3.7 mi SSW 8.1 mph - N/A Rain Light Rain
6:20 AM 44.6 °F 40.2 °F 41.0 °F 87% 29.86 in 3.7 mi SSW 8.1 mph - N/A Rain Light Rain
6:50 AM 44.6 °F 39.2 °F 41.0 °F 87% 29.86 in 3.7 mi SSW 10.4 mph - N/A Rain Light Rain
7:00 AM 44 °F - 42 °F 89% 29.88 in 4 mi SSW 11.2 mph - - Rain Light Rain
7:20 AM 44.6 °F 40.7 °F 41.0 °F 87% 29.86 in 6.2 mi South 6.9 mph - N/A   Mostly Cloudy
7:50 AM 44.6 °F 39.7 °F 41.0 °F 87% 29.86 in 6.2 mi South 9.2 mph - N/A   Partly Cloudy
8:20 AM 44.6 °F 40.7 °F 41.0 °F 87% 29.86 in 6.2 mi South 6.9 mph - N/A   Scattered Clouds
8:50 AM 44.6 °F 39.2 °F 42.8 °F 93% 29.89 in 3.7 mi SSW 10.4 mph - N/A Rain Light Rain
9:20 AM 44.6 °F 40.2 °F 42.8 °F 93% 29.89 in 3.7 mi South 8.1 mph - N/A Rain Light Rain
9:50 AM 46.4 °F 41.5 °F 42.8 °F 87% 29.86 in 4.3 mi South 10.4 mph - N/A Rain Light Rain
10:20 AM 46.4 °F 40.7 °F 42.8 °F 87% 29.86 in 5.6 mi SSW 12.7 mph - N/A Rain Light Rain
10:50 AM 46.4 °F 40.1 °F 42.8 °F 87% 29.86 in 6.2 mi SSW 15.0 mph - N/A Rain Light Rain
11:20 AM 46.4 °F 40.4 °F 44.6 °F 93% 29.86 in 6.2 mi SSW 13.8 mph - N/A Rain Light Rain
11:50 AM 48.2 °F - 44.6 °F 87% 29.86 in 6.2 mi SSW 15.0 mph - N/A   Scattered Clouds
12:20 PM 48.2 °F - 44.6 °F 87% 29.83 in 6.2 mi SSW 16.1 mph - N/A   Scattered Clouds
12:50 PM 48.2 °F - 44.6 °F 87% 29.83 in 6.2 mi SSW 15.0 mph - N/A   Mostly Cloudy
1:00 PM 48 °F - 45 °F 86% 29.85 in 12 mi SSW 13.4 mph - -   Partly Cloudy
1:20 PM 48.2 °F - 44.6 °F 87% 29.83 in 6.2 mi SSW 15.0 mph - N/A Rain Light Rain
1:50 PM 48.2 °F - 44.6 °F 87% 29.83 in 6.2 mi SSW 16.1 mph - N/A   Mostly Cloudy
2:20 PM 50.0 °F - 46.4 °F 87% 29.80 in 6.2 mi SSW 16.1 mph - N/A   Mostly Cloudy
2:50 PM 48.2 °F - 46.4 °F 93% 29.80 in 6.2 mi SSW 17.3 mph - N/A   Scattered Clouds
3:20 PM 50.0 °F - 46.4 °F 87% 29.80 in 6.2 mi SSW 15.0 mph - N/A   Scattered Clouds
3:50 PM 50.0 °F - 46.4 °F 87% 29.80 in 6.2 mi SSW 13.8 mph - N/A   Mostly Cloudy
4:00 PM 49 °F - 46 °F 84% 29.80 in 19 mi SSW 13.4 mph - -   Partly Cloudy
4:20 PM 48.2 °F - 44.6 °F 87% 29.77 in 5.0 mi SSW 15.0 mph - N/A Rain Light Rain
4:50 PM 48.2 °F - 44.6 °F 87% 29.77 in 6.2 mi SSW 13.8 mph - N/A   Scattered Clouds
5:20 PM 48.2 °F - 44.6 °F 87% 29.77 in 6.2 mi SSW 15.0 mph - N/A   Scattered Clouds
5:50 PM 48.2 °F - 44.6 °F 87% 29.77 in 5.6 mi SSW 15.0 mph - N/A Rain Light Rain
6:20 PM 48.2 °F - 44.6 °F 87% 29.74 in 3.7 mi SSW 13.8 mph - N/A Rain Light Rain Showers
6:50 PM 48.2 °F - 44.6 °F 87% 29.74 in 3.7 mi SSW 13.8 mph - N/A Rain Rain Showers
7:20 PM 48.2 °F - 44.6 °F 87% 29.74 in 6.2 mi SW 13.8 mph - N/A Rain Light Rain Showers
7:50 PM 48.2 °F - 44.6 °F 87% 29.74 in 3.7 mi SSW 16.1 mph - N/A Rain Rain
8:20 PM 48.2 °F - 44.6 °F 87% 29.74 in 6.2 mi SSW 13.8 mph - N/A   Mostly Cloudy
8:50 PM 48.2 °F - 44.6 °F 87% 29.74 in 3.7 mi SW 11.5 mph - N/A Rain Light Rain
9:20 PM 48.2 °F - 44.6 °F 87% 29.74 in 6.2 mi SSW 9.2 mph - N/A   Scattered Clouds
9:50 PM 48.2 °F - 44.6 °F 87% 29.74 in 6.2 mi SW 11.5 mph - N/A   Scattered Clouds
10:00 PM 48 °F - 45 °F 85% 29.74 in 9 mi SW 11.2 mph - - Rain Light Rain
10:20 PM 48.2 °F - 44.6 °F 87% 29.74 in 6.2 mi SSW 10.4 mph - N/A Rain Light Rain Showers
10:50 PM 48.2 °F - 44.6 °F 87% 29.71 in 6.2 mi SSW 9.2 mph - N/A   Scattered Clouds
11:20 PM 46.4 °F 42.4 °F 44.6 °F 93% 29.71 in 6.2 mi SSW 8.1 mph - N/A   Partly Cloudy
11:50 PM 46.4 °F 42.4 °F 44.6 °F 93% 29.71 in 6.2 mi SW 8.1 mph - N/A   Scattered Clouds